Погода Октябрьское

Погода Октябрьское : погода сейчас, прогноз погоды и архив. Всё, что Вы хотите узнать о погоде Октябрьское!

Поиск расширенной информации на нашем сайте:

Другие новости

Новости СМИ2

Главная страница сайта

Новости сайта

03.07.2017

Напоминаем, что на нашем специализированном сайте Метеоцентр.Азия вы можете получить высокодетализированные автоматические прогнозы погоды по пунктам России, СНГ и мира в авиационном формате (включающие направление и скорость ветра, видимость, явления погоды, количество и форму облачности, нижнюю и верхнюю границу облачности).


Погода Октябрьское - сегодня

Время (UTC), дата Ветер
(°,м/с) 
Видим.   Явления Облачность Т
(°С)
Тd
(°С)
f(%) Тe
(°С)
Pmin
(гПа)
dP
(гПа)
Po
(мм)
O2
(г/м3)
Тmin Tmax R s Состояние
почвы
00 17.05.18 050 (СВ) 20000 м    10/0 верхняя 
[Cs]
-2.9 -4.4 89 -2  1015.3  -1.9  755  308           
03 17.05.18 040 (СВ) 20000 м    10/0 средняя, верхняя 
[As trans|Ci fib]
+0.4 -8.4 52 +1  1013.4  -1.7  753  304  -4.2      мокрый или
старый снег
50-90% 
06 17.05.18 210 (ЮЗ) 20000 м    10/3 1000 м верхняя 
[Cu hum|Cs]
+4 -8.7 39 +3  1012.1  -1.2  752  300           
09 17.05.18 290 (З) 20000 м    10/4 1000 м средняя 
[Sc diur, vesp|As op]
+2.9 -6.4 50 +2  1012.1  -0.1  752  301           
12 17.05.18 070 (В) 4000 м  слаб. снег  10/4 600 м средняя 
[Sc diur, vesp|As op]
+1 -1.7 82 1012.5  0.4  753  302           
15 17.05.18 310 (СЗ) 20000 м  в посл. час ливневой снег  8/8 600 м кучево-дожд. 
[Cb calv]
+0.6 -4.8 67 +1  1012.8  0.3  753  303    +4.8  0.5     
18 17.05.18 340 (С) 20000 м  {ливн. осадки, снег}  10/10 1000 м 
[Sc diur, vesp]
-0.9 -6.6 65 1013.4  0.5  753  305           
21 17.05.18 070 (В) 20000 м  {ливн. осадки}  10/6 600 м кучево-дожд., верхняя 
[Cb calv|Ci fib]
-2.5 -5.4 80 -4  1015  1.6  754  307           
00 18.05.18 050 (СВ) 20000 м  {ливн. осадки}  4/4 1000 м 
[Cu hum]
-4.1 -7.9 75 -6  1017.9  2.8  756  310           
03 18.05.18 020 (С) 20000 м    8/8 600 м кучево-дожд. 
[Cb calv]
-1.7 -9.5 55 -4  1019.7  1.8  758  308  -4.1    0.2  мокрый или
старый снег
10-40% 
06 18.05.18 060 (СВ) 20000 м    10/3 1000 м верхняя 
[Cu hum|Ci fib]
+1.4 -9.8 43 1020.7  1.1  759  305           
09 18.05.18 040 (СВ) 20000 м    10/10 1000 м 
[Sc]
+2 -8.7 45 1022.3  1.6  760  305           
12 18.05.18 040 (СВ) 20000 м    10/8 1000 м верхняя 
[Cu Sc|Ci fib]
+2.2 -8.8 44 +2  1023.5  1.2  761  305           
18 18.05.18 030 (СВ) 20000 м    ясно 
-2.8 -8.5 65 -2  1023.9  761  311           
21 18.05.18 030 (СВ) 20000 м    ясно 
-4.5 -7.6 79 -4  1024.1  0.1  761  313           
00 19.05.18 тихо ()   20000 м    ясно 
-4.3 -7.4 79 -4  1024.1  761  312           
03 19.05.18 140 (ЮВ) 20000 м    10/0 верхняя 
[Ci fib]
+1.6 -3.8 67 +1  1022.6  -1.3  760  305  -5.5      мокрый или
старый снег
10-40% 
06 19.05.18 110 (В) 20000 м    4/0 верхняя 
[Ci fib]
+6.6 -4.3 46 +6  1020.4  -2  759  299           
09 19.05.18 100 (В) 20000 м    10/0 верхняя 
[Ci fib]
+10.9 -5.7 31 +11  1017.5  -2.7  757  294           
12 19.05.18 200 (Ю) 4{10}  20000 м    10/0 средняя, верхняя 
[Ac trans|Ci fib]
+12.5 -7.1 25 +12  1015.5  -2  755  292           
18 19.05.18 070 (В) 20000 м    10/10 1500 м 
[Sc]
+8.5 -2.5 46 +8  1010.8  -2.2  752  294           
21 19.05.18 170 (Ю) 20000 м    10/10 1500 м 
[Sc]
+6 +1.8 74 +4  1008.3  -2.6  750  295           
03 20.05.18 160 (Ю) 4000 м  в посл. час дождь  10/10 600 м 
[Ns]
+4.7 +3.5 92 +4  1002.8  -2.6  745  295  +4.7    мокрый или
старый снег
10-40% 
06 20.05.18 150 (ЮВ) 4000 м  слаб. дождь  10/10 600 м 
[Ns]
+6 +5.3 95 +6  1000.9  -1.8  744  292           
09 20.05.18 160 (Ю) 0500 м  туман{дождь}  ?/?  
+7.4 +7.1 98 +8  1000.2  -0.7  744  290           
Время (UTC), дата Ветер
(°,м/с) 
Видим.   Явления Облачность Т
(°С)
Тd
(°С)
f(%) Тe
(°С)
Pmin
(гПа)
dP
(гПа)
Po
(мм)
O2
(г/м3)
Тmin Tmax R s Состояние
почвы

Для получения пояснительной информации подведите курсор к названию столбца.

ПОГОДА Октябрьское - архив

Всё, что Вы хотите узнать о погоде Октябрьское - удобно и подробно!

Выберите нужную дату (начиная с 1 января 2015* года) и нажмите кнопку "Найти".
Будут отображены архивные сводки погоды по пункту Октябрьское, начиная с указанной даты.


Отображать данные в формате CSV (для использования в таблицах Excel)


Внимание! Наш архив погоды предназначен исключительно для личного некоммерческого использования в познавательных целях. Если Вам необходимы официальные справки о состоянии погоды (для производственных, юридических, коммерческих и т.п. целей), обращайтесь в органы Росгидромета.

*Примечание: данная дата относится к архиву по метеостанциям СССР (Россия, СНГ, Балтия).
Архив по метеостанциям Зарубежной Европы и Азии (кроме Китая) хранится 10 дней, по другим регионам земного шара (Китай, Африка, Америка, Австралия, Океания) - 1 день.

Октябрьское - район местоположения метеостанции


Название, широта, долгота, высота метеостанции:
Октябрьское 62.4°ш. 66.1°д. 72 м над ур. моря [Российская Федерация]

Дополнительная информация

В oтличие oт бoльшинства пoгoдных сайтoв мы публикуем пoдрoбную метеoинфoрмацию в детальнoм прoфессиoнальнoм фoрмате.

Характеристики температуры и влажнoсти вoздуха измеряются на высoте 2 м в тени вдали oт зданий и деревьев.
Скoрoсть ветра измеряется на высoте 10 м (на урoвне рoста челoвека скoрoсть ветра ниже в 1.5-2 раза). Если метеoстанция нахoдится в гoрoде или в лесу, тo скoрoсть ветра занижена на 2-4 м/с пo сравнению с oткрытым местoм. Скoрoсть ветра над акватoриями крупных рек и oзёр, а также на вершинах хoлмoв на 2-5 м/с выше, чем в oбычных услoвиях.
Атмoсфернoе давление в разных тoчках местнoсти мoжет значительнo oтличаться oт давления на метеoстанции, в зависимoсти oт услoвий рельефа (при пoдъёме на 10 м давление пoнижается примернo на 1 мм рт.ст.).